Location: Holkham
(52.9500°N, 0.8167°E)
Time: 20:27:23
(UTC+00:00)

Cosmos 1315 Rocket - Pass Details

Date: 19 May 2025
Orbit: 498 x 525 km, 81.2° (Epoch: 21 June)

Event Time Altitude Azimuth Distance (km) Brightness Sun altitude
Exits shadow 20:55:45 10° 141° (SE) 1,780 4.7 -7.6°
Reaches altitude 10° 20:55:47 10° 140° (SE) 1,768 4.7 -7.6°
Maximum altitude 20:58:47 22° 90° (E) 1,202 4.2 -7.9°
Drops below altitude 10° 21:01:48 10° 39° (NE) 1,775 5.6 -8.2°
Sets 21:04:17 0° 24° (NNE) 2,666 6.7 -8.4°
